[[{"header":{"parameterUnit":"m.s-1","parameterCategory":1,"la1":30.2991,"la2":30.254,"lo1":-89.0895,"lo2":-89.0444,"dy":0.0017,"dx":0.0017,"nx":28,"ny":28,"refTime":"2024-08-30T21:00:00:Z","depth":0,"parameterNumber":2,"parameterNumberName":"U-component_of_WINDS"},"data":[0,0,0,0,0,0,0,0,0,0,0,0,0,0,0,0,0,0,0,0,0,0,0,0,0,0,0,0,0,0,0,0,0,0,0,0,0,0,0,0,0,0,0,0,0,0,0,0,0,0,0,0,0,0,0,0,0,0,-5.0923,-5.0923,0,-5.0971,-5.0971,-5.0972,-5.0838,-5.0834,-5.083,-5.0826,-5.0874,-5.0879,-5.0884,0,0,0,0,0,0,0,0,0,0,0,0,0,-5.0713,-5.0717,-5.0923,-5.0923,-5.0924,-5.0971,-5.0971,-5.0972,-5.0839,-5.0834,-5.0829,-5.0824,-5.0872,-5.0878,-5.0884,0,0,0,0,0,0,0,0,0,0,0,0,0,-5.0787,-5.0719,-5.0923,-5.0863,-5.0858,-5.0971,-5.0971,-5.0972,-5.084,-5.0834,-5.0827,-5.0822,-5.087,-5.0878,-5.0885,-5.1057,0,0,-5.0909,-5.0912,0,0,0,0,0,0,0,0,-5.0783,-5.0795,-5.0871,-5.0867,-5.0862,-5.0892,-5.0915,-5.1001,-5.0841,-5.0847,-5.0826,-5.0818,-5.0885,-5.0891,-5.0914,-5.1059,-5.1061,-5.091,-5.0914,-5.0918,-5.092,0,0,0,0,0,0,0,-5.0778,-5.0792,-5.0941,-5.0872,-5.0867,-5.0833,-5.0837,-5.093,-5.09,-5.0846,-5.0836,-5.0844,-5.0881,-5.0907,-5.0914,-5.1062,-5.0909,-5.0916,-5.0921,-5.0924,-5.1348,-5.1354,0,0,0,0,0,0,-5.0781,-5.0788,-5.094,-5.0943,-5.0806,-5.0842,-5.0846,-5.0889,-5.0899,-5.0894,-5.0849,-5.0837,-5.0896,-5.0905,-5.0915,-5.1114,-5.0917,-5.0925,-5.0929,-5.1341,-5.1349,-5.1356,0,0,0,0,0,0,-5.0777,-5.0795,-5.0938,-5.0863,-5.0879,-5.0852,-5.0901,-5.0893,-5.0918,-5.0901,-5.0895,-5.0881,-5.0892,-5.0904,-5.1022,-5.1114,-5.0928,-5.0935,-5.1333,-5.1343,-5.1353,-5.1515,0,0,0,0,0,0,-5.0771,-5.0795,-5.0861,-5.0866,-5.0883,-5.1046,-5.0907,-5.0898,-5.0932,-5.0917,-5.0929,-5.0925,-5.0888,-5.1011,-5.103,-5.1121,-5.0941,-5.1325,-5.1338,-5.1349,-5.1501,-5.1529,-5.1553,0,0,0,0,0,-5.0764,-5.0905,-5.0865,-5.0884,-5.0965,-5.1051,-5.1061,-5.1016,-5.094,-5.1005,-5.0993,-5.0925,-5.1101,-5.1024,-5.1044,-5.1139,-5.1319,-5.1334,-5.1349,-5.1489,-5.1524,-5.1552,0,0,0,0,0,0,-5.0911,-5.0904,-5.086,-5.1006,-5.1031,-5.1028,-5.1109,-5.1054,-5.11,-5.1084,-5.1025,-5.1029,-5.1157,-5.116,-5.1075,-5.1304,-5.1197,-5.1216,-5.1297,-5.1329,-5.1355,-5.135,-5.0948,0,0,0,0,0,-5.0961,-5.1032,-5.1022,-5.1152,-5.1167,-5.1137,-5.1172,-5.1135,-5.1158,-5.1167,-5.1164,-5.1188,-5.1248,-5.129,-5.1345,-5.1502,-5.1501,-5.1577,-5.1602,-5.1624,-5.1641,-5.1721,-5.1753,-5.1405,-5.1405,-5.1405,0,0,-5.1064,-5.1069,-5.1117,-5.1182,-5.1196,-5.127,-5.1146,-5.123,-5.1283,-5.118,-5.129,-5.1289,-5.1312,-5.1449,-5.151,-5.1455,-5.1737,-5.1643,-5.166,-5.1665,-5.1739,-5.1772,-5.1802,-5.1415,-5.1413,-5.1412,0,0,-5.1288,-5.1301,-5.1409,-5.1425,-5.1448,-5.1427,-5.1453,-5.146,-5.1455,-5.1565,-5.1488,-5.1551,-5.1657,-5.1675,-5.1698,-5.1929,-5.1866,-5.1949,-5.2083,-5.2162,-5.2189,-5.2213,-5.2292,-5.2322,-5.1966,-5.1966,-5.1967,0,-5.1413,-5.1521,-5.1471,-5.156,-5.1589,-5.1499,-5.1607,-5.1626,-5.1666,-5.1688,-5.1627,-5.1756,-5.1766,-5.1904,-5.196,-5.1984,-5.201,-5.1946,-5.219,-5.2213,-5.2235,-5.2309,-5.234,-5.1976,-5.1975,-5.1974,-5.1973,0,-5.1672,-5.1748,-5.1833,-5.1873,-5.1912,-5.2011,-5.1974,-5.202,-5.198,-5.1965,-5.2076,-5.2084,-5.2138,-5.2169,-5.2131,-5.2302,-5.2267,-5.22,-5.209,-5.2278,-5.2347,-5.2376,-5.199,-5.1986,-5.1983,-5.1981,0,0,-5.1989,-5.2,-5.2031,-5.2047,-5.2065,-5.2123,-5.2217,-5.2269,-5.2308,-5.2339,-5.2413,-5.2505,-5.2441,-5.2468,-5.2431,-5.2501,-5.2679,-5.2424,-5.2423,-5.2468,-5.2865,-5.2913,-5.2947,-5.2639,-5.2644,-5.2648,-5.2861,0,-5.2207,-5.2367,-5.2324,-5.2483,-5.2551,-5.2467,-5.2547,-5.2567,-5.2555,-5.2611,-5.2598,-5.2662,-5.2575,-5.259,-5.2656,-5.2644,-5.2757,-5.2628,-5.2705,-5.2709,-5.2699,-5.2984,-5.3036,-5.3237,-5.2889,-5.2893,-5.2896,0,-5.2483,-5.2524,-5.269,-5.2694,-5.2721,-5.2795,-5.2838,-5.2893,-5.2913,-5.2899,-5.2929,-5.2877,-5.2967,-5.286,-5.2981,-5.2894,-5.2924,-5.2923,-5.293,-5.2932,-5.2812,-5.2992,-5.33,-5.3329,-5.2939,-5.2936,-5.2933,0,-5.2694,-5.279,-5.2901,-5.2917,-5.2927,-5.298,-5.2986,-5.3,-5.3033,-5.3071,-5.3092,-5.314,-5.3166,-5.3204,-5.3167,-5.3092,-5.3294,-5.3183,-5.3283,-5.3284,-5.3327,-5.3324,-5.3641,-5.3352,-5.3351,-5.3351,-5.335,0,-5.294,-5.3044,-5.2995,-5.3063,-5.3176,-5.3126,-5.3239,-5.3235,-5.3248,-5.3312,-5.3243,-5.3305,-5.3253,-5.331,-5.3281,-5.3385,-5.3398,-5.3388,-5.3379,-5.3393,-5.3393,-5.3409,-5.3392,-5.3359,-5.3357,-5.3355,-5.3354,0,-5.3194,-5.3165,-5.3279,-5.3279,-5.3281,-5.3364,-5.3363,-5.3424,-5.3408,-5.349,-5.3507,-5.348,-5.3543,-5.351,-5.3577,-5.3557,-5.369,-5.3664,-5.3683,-5.3675,-5.3775,-5.3765,-5.4111,-5.4152,-5.3839,-5.3842,-5.3845,0,-5.3351,-5.3429,-5.3436,-5.3474,-5.3485,-5.3548,-5.3581,-5.3535,-5.3572,-5.36,-5.3658,-5.3715,-5.3758,-5.3863,-5.3849,-5.3899,-5.387,-5.3988,-5.3877,-5.3888,-5.3868,-5.3863,-5.3869,-5.401,-5.4013,-5.4016,-5.4019,0,-5.3633,-5.3615,-5.3666,-5.3712,-5.3753,-5.3788,-5.3816,-5.3851,-5.3805,-5.385,-5.3914,-5.3947,-5.4014,-5.4071,-5.4113,-5.4118,-5.4061,-5.4054,-5.4079,-5.4093,-5.4099,-5.4094,-5.3741,-5.4046,-5.4043,-5.4041,-5.404,-5.4039,-5.3841,-5.3904,-5.3919,-5.3977,-5.3994,-5.4021,-5.4078,-5.4068,-5.4121,-5.4171,-5.4141,-5.4215,-5.423,-5.4281,-5.4294,-5.435,-5.4303,-5.434,-5.4349,-5.4358,-5.437,-5.4093,-5.4358,-5.4357,-5.4357,-5.4356,-5.4355,0,-5.4116,-5.412,-5.4175,-5.4216,-5.4262,-5.4204,-5.4232,-5.4274,-5.434,-5.436,-5.4403,-5.4475,-5.453,-5.452,-5.4569,-5.4616,-5.4591,-5.463,-5.4624,-5.4626,-5.4411,-5.4383,-5.465,-5.465,-5.465,-5.4649,-5.4649,-5.4649,-5.4264,-5.4368,-5.4351,-5.4462,-5.4465,-5.4537,-5.4558,-5.4582,-5.4597,-5.468,-5.4725,-5.4719,-5.4726,-5.4775,-5.4822,-5.4818,-5.4837,-5.4886,-5.4872,-5.4671,-5.4642,-5.4614,-5.4587,-5.4892,-5.4892,-5.5082,-5.5083,-5.5085]},{"header":{"parameterUnit":"m.s-1","parameterCategory":1,"la1":30.2991,"la2":30.254,"lo1":-89.0895,"lo2":-89.0444,"dy":0.0017,"dx":0.0017,"nx":28,"ny":28,"refTime":"2024-08-30T21:00:00:Z","depth":0,"parameterNumber":3,"parameterNumberName":"V-component_of_WINDS"},"data":[0,0,0,0,0,0,0,0,0,0,0,0,0,0,0,0,0,0,0,0,0,0,0,0,0,0,0,0,0,0,0,0,0,0,0,0,0,0,0,0,0,0,0,0,0,0,0,0,0,0,0,0,0,0,0,0,0,0,0.7408,0.7409,0,0.7441,0.7441,0.7441,0.7408,0.7407,0.7405,0.7404,0.7437,0.7439,0.7441,0,0,0,0,0,0,0,0,0,0,0,0,0,0.7317,0.7319,0.7408,0.7409,0.7409,0.7441,0.7441,0.7442,0.7408,0.7407,0.7405,0.7404,0.7436,0.7439,0.7441,0,0,0,0,0,0,0,0,0,0,0,0,0,0.7354,0.732,0.7408,0.7396,0.7395,0.7441,0.7441,0.7442,0.7409,0.7407,0.7405,0.7403,0.7435,0.7438,0.7442,0.75,0,0,0.7451,0.7452,0,0,0,0,0,0,0,0,0.7352,0.7358,0.7398,0.7397,0.7396,0.7418,0.7421,0.7461,0.7409,0.7404,0.7404,0.7402,0.7432,0.7436,0.7446,0.7501,0.7503,0.7451,0.7453,0.7455,0.7455,0,0,0,0,0,0,0,0.735,0.7356,0.7421,0.7398,0.7397,0.7389,0.7392,0.7429,0.7428,0.7404,0.7402,0.7406,0.7432,0.7443,0.7446,0.7503,0.7451,0.7454,0.7456,0.7457,0.761,0.7612,0,0,0,0,0,0,0.7348,0.7354,0.742,0.7422,0.7369,0.7393,0.7396,0.7413,0.7428,0.7428,0.7408,0.7404,0.7439,0.7443,0.7447,0.7518,0.7455,0.7457,0.7459,0.7608,0.761,0.7613,0,0,0,0,0,0,0.7347,0.7355,0.7419,0.7387,0.7395,0.7396,0.7416,0.7415,0.7426,0.7431,0.743,0.7419,0.7437,0.7443,0.7487,0.7518,0.7459,0.7462,0.7605,0.7608,0.7611,0.7658,0,0,0,0,0,0,0.7344,0.7354,0.7376,0.7388,0.7397,0.7458,0.7418,0.7417,0.7432,0.7428,0.7442,0.7442,0.7436,0.7483,0.7491,0.7522,0.7464,0.7602,0.7607,0.761,0.7654,0.7663,0.767,0,0,0,0,0,0.7341,0.7388,0.7377,0.7386,0.7424,0.746,0.7465,0.7457,0.7434,0.7457,0.746,0.7442,0.7514,0.7488,0.7496,0.7528,0.76,0.7605,0.761,0.765,0.7661,0.767,0,0,0,0,0,0,0.7378,0.7389,0.7378,0.7429,0.7444,0.7454,0.7482,0.7469,0.749,0.7485,0.7475,0.7478,0.7526,0.7531,0.7502,0.7586,0.7553,0.756,0.7581,0.7591,0.7599,0.7597,0.7467,0,0,0,0,0,0.7393,0.7421,0.7428,0.7473,0.7481,0.7481,0.7496,0.7489,0.7504,0.751,0.7516,0.7531,0.7557,0.7574,0.7598,0.7654,0.7658,0.7681,0.7689,0.7696,0.7702,0.7733,0.7744,0.7629,0.7629,0.7629,0,0,0.7423,0.7432,0.745,0.7481,0.7492,0.7522,0.7486,0.7519,0.7541,0.7514,0.7557,0.7562,0.7578,0.7629,0.7652,0.7636,0.7734,0.7702,0.7707,0.771,0.7739,0.775,0.776,0.7632,0.7631,0.7631,0,0,0.7492,0.7502,0.7541,0.7553,0.7569,0.7569,0.7578,0.7591,0.7593,0.7636,0.7618,0.7644,0.7688,0.7701,0.7713,0.779,0.7774,0.7798,0.784,0.7871,0.788,0.7888,0.7916,0.7926,0.7804,0.7804,0.7804,0,0.7527,0.7571,0.7563,0.7597,0.7612,0.759,0.763,0.7642,0.7665,0.7676,0.7658,0.7714,0.7724,0.7778,0.7797,0.7807,0.7818,0.7796,0.7879,0.7887,0.7895,0.7921,0.7932,0.7807,0.7806,0.7806,0.7806,0,0.7614,0.7645,0.7674,0.7699,0.7717,0.7754,0.7751,0.777,0.7762,0.7764,0.7808,0.7819,0.7845,0.7858,0.7849,0.7911,0.7901,0.7881,0.7847,0.7909,0.7934,0.7944,0.7811,0.781,0.7809,0.7808,0,0,0.7707,0.7728,0.7739,0.775,0.7768,0.7791,0.7828,0.7854,0.7872,0.7889,0.792,0.7959,0.7941,0.7955,0.7948,0.7975,0.8037,0.7952,0.7953,0.7968,0.8106,0.8121,0.8133,0.8026,0.8028,0.803,0.8105,0,0.7778,0.7842,0.7836,0.7896,0.7926,0.7906,0.7938,0.7952,0.7955,0.798,0.7983,0.8011,0.7985,0.7994,0.802,0.8024,0.8064,0.8018,0.8055,0.8057,0.8052,0.8146,0.8162,0.8233,0.8115,0.8116,0.8118,0,0.7869,0.7891,0.7955,0.7969,0.7981,0.801,0.8034,0.8058,0.8075,0.8075,0.8091,0.808,0.8118,0.8084,0.8135,0.8104,0.8119,0.8123,0.8126,0.8129,0.8091,0.8153,0.8255,0.8266,0.8133,0.8131,0.813,0,0.7933,0.7977,0.8022,0.8032,0.8049,0.807,0.8079,0.8093,0.811,0.8131,0.8142,0.8167,0.8181,0.8201,0.8198,0.8173,0.8251,0.8216,0.8253,0.8253,0.827,0.8269,0.8377,0.8279,0.8279,0.8278,0.8278,0,0.8013,0.8053,0.805,0.8078,0.8122,0.8115,0.8159,0.8165,0.8178,0.8207,0.8191,0.8218,0.8211,0.8238,0.8236,0.8279,0.8285,0.8287,0.8286,0.8289,0.8289,0.8299,0.8294,0.8281,0.828,0.828,0.8279,0,0.8091,0.8091,0.8138,0.8151,0.8156,0.8188,0.8199,0.8225,0.8227,0.8263,0.8271,0.8274,0.8305,0.8304,0.8338,0.8337,0.8391,0.8384,0.8386,0.8384,0.8421,0.8418,0.854,0.8556,0.8447,0.8448,0.8448,0,0.8142,0.8173,0.819,0.8208,0.8218,0.8247,0.8264,0.8259,0.8277,0.8299,0.8323,0.8352,0.8376,0.8426,0.8432,0.8458,0.8452,0.8493,0.8456,0.8459,0.8454,0.8453,0.8456,0.85,0.8502,0.8503,0.8503,0,0.8234,0.8233,0.8258,0.8285,0.8306,0.8327,0.8345,0.8361,0.8357,0.8379,0.8411,0.8429,0.8466,0.8496,0.8521,0.853,0.8517,0.8515,0.8525,0.8529,0.8529,0.853,0.8406,0.8512,0.8511,0.8511,0.851,0.851,0.8301,0.8328,0.8344,0.8374,0.8387,0.8405,0.8431,0.8436,0.8463,0.8492,0.8487,0.8523,0.854,0.8573,0.8585,0.8613,0.8598,0.8613,0.8616,0.862,0.8625,0.8524,0.8617,0.8617,0.8617,0.8617,0.8616,0,0.8393,0.8403,0.843,0.8457,0.848,0.8466,0.8486,0.8507,0.8539,0.8556,0.8579,0.8617,0.8646,0.8654,0.8682,0.8703,0.8698,0.8711,0.871,0.8712,0.8636,0.8625,0.8715,0.8715,0.8715,0.8715,0.8715,0.8715,0.8443,0.8488,0.8489,0.8541,0.855,0.8586,0.8599,0.8616,0.8629,0.8672,0.8696,0.8701,0.8715,0.8744,0.8771,0.8772,0.8784,0.88,0.8799,0.8727,0.8717,0.8708,0.8698,0.8802,0.8802,0.8873,0.8874,0.8874]}]]